EW1488 Weather Reports


Display with metric or nautical units.
time (UTC)temp
F
wind
direction
speed
MPH
gust
MPH
rain 1hr
in
rain 24hr
in
rain mn
in
humidity
%
barometer
mb
20230207073017 27 0.0 0.0 0.00 0.00 0.00 75 1020.0
20230207072517 27 0.0 0.0 0.00 0.00 0.00 75 1019.9
20230207072017 27 0.0 0.0 0.00 0.00 0.00 74 1019.9
20230207071557 27 0.0 0.0 0.00 0.00 0.00 74 1019.9
20230207071017 27 0.0 0.0 0.00 0.00 0.00 74 1019.8
20230207070517 27 0.0 0.0 0.00 0.00 0.00 74 1019.8
20230207070018 28 0.0 0.0 0.00 0.00 0.00 74 1019.8
20230207065517 28 0.0 0.0 0.00 0.00 0.00 74 1019.8
20230207065017 28 0.0 0.0 0.00 0.00 0.00 74 1019.8
20230207064517 28 0.0 0.0 0.00 0.00 0.00 74 1019.7
20230207064017 28 0.0 0.0 0.00 0.00 0.00 74 1019.6
20230207063517 28 0.0 0.0 0.00 0.00 0.00 73 1019.6
20230207063017 28 0.0 0.0 0.00 0.00 0.00 73 1019.7
20230207062517 29 0.0 0.0 0.00 0.00 0.00 73 1019.6
20230207062017 29 0.0 0.0 0.00 0.00 0.00 72 1019.6
20230207061517 29 0.0 0.0 0.00 0.00 0.00 72 1019.5
20230207061037 29 0.0 0.0 0.00 0.00 0.00 71 1019.4
20230207060517 29 0.0 0.0 0.00 0.00 0.00 71 1019.4
20230207060017 30 0.0 0.0 0.00 0.00 0.00 71 1019.5
20230207055517 30 0.0 0.0 0.00 0.00 0.00 70 1019.5
20230207055017 30 0.0 0.0 0.00 0.00 0.00 70 1019.4
20230207054517 30 0.0 0.0 0.00 0.00 0.00 69 1019.4
20230207054017 31 0.0 2.0 0.00 0.00 0.00 69 1019.2
20230207053517 31 68 1.0 3.0 0.00 0.00 0.00 68 1019.2
20230207053017 31 0.0 0.0 0.00 0.00 0.00 67 1019.2
20230207052517 31 23 2.0 3.0 0.00 0.00 0.00 64 1019.2
20230207052017 32 0.0 0.0 0.00 0.00 0.00 61 1019.0
20230207051517 32 0.0 0.0 0.00 0.00 0.00 59 1019.0
20230207051017 33 0.0 0.0 0.00 0.00 0.00 59 1018.9
20230207050517 33 0.0 0.0 0.00 0.00 0.00 60 1019.0
20230207050017 33 0.0 0.0 0.00 0.00 0.00 60 1018.9
20230207045517 33 135 1.0 2.0 0.00 0.00 0.00 63 1018.8
20230207045017 33 90 1.0 2.0 0.00 0.00 0.00 64 1018.8
20230207044517 33 90 1.0 1.0 0.00 0.00 0.00 64 1018.7
20230207044037 33 90 1.0 2.0 0.00 0.00 0.00 64 1018.7
20230207043517 34 90 1.0 2.0 0.00 0.00 0.00 63 1018.7
20230207043017 34 90 2.0 3.0 0.00 0.00 0.00 62 1018.7
20230207042517 34 0.0 2.0 0.00 0.00 0.00 62 1018.7
20230207042017 34 0.0 0.0 0.00 0.00 0.00 62 1018.7
20230207041517 34 0.0 0.0 0.00 0.00 0.00 62 1018.7
20230207041037 34 0.0 0.0 0.00 0.00 0.00 62 1018.6
20230207040537 34 0.0 0.0 0.00 0.00 0.00 61 1018.6
20230207040017 35 0.0 0.0 0.00 0.00 0.00 61 1018.6
20230207035537 35 0.0 0.0 0.00 0.00 0.00 61 1018.6
20230207035017 35 0.0 0.0 0.00 0.00 0.00 60 1018.4
20230207034517 35 0.0 0.0 0.00 0.00 0.00 59 1018.3
20230207034017 35 90 1.0 2.0 0.00 0.00 0.00 58 1018.2
20230207033517 35 90 1.0 2.0 0.00 0.00 0.00 59 1018.2
20230207033037 35 0.0 0.0 0.00 0.00 0.00 60 1018.1
20230207032517 36 0.0 0.0 0.00 0.00 0.00 59 1018.0
20230207032037 36 158 2.0 2.0 0.00 0.00 0.00 58 1017.9
20230207031517 36 225 1.0 2.0 0.00 0.00 0.00 56 1017.7
20230207031017 36 225 1.0 2.0 0.00 0.00 0.00 56 1017.7
20230207030517 36 203 3.0 5.0 0.00 0.00 0.00 56 1017.7
20230207030017 37 203 1.0 2.0 0.00 0.00 0.00 57 1017.5
20230207025517 37 203 1.0 2.0 0.00 0.00 0.00 57 1017.4
20230207025017 37 203 2.0 3.0 0.00 0.00 0.00 57 1017.4
20230207024517 37 203 1.0 2.0 0.00 0.00 0.00 56 1017.4
20230207024017 37 203 2.0 3.0 0.00 0.00 0.00 55 1017.3
20230207023517 38 203 1.0 2.0 0.00 0.00 0.00 55 1017.3
20230207023017 38 203 2.0 3.0 0.00 0.00 0.00 54 1017.4
20230207022537 38 0.0 2.0 0.00 0.00 0.00 53 1017.4
20230207022037 38 203 1.0 3.0 0.00 0.00 0.00 53 1017.2
20230207021517 39 203 2.0 3.0 0.00 0.00 0.00 52 1017.2
20230207021017 39 0.0 0.0 0.00 0.00 0.00 52 1017.1
20230207020517 39 0.0 0.0 0.00 0.00 0.00 51 1017.2
20230207020017 39 0.0 0.0 0.00 0.00 0.00 51 1017.2
20230207015517 39 0.0 0.0 0.00 0.00 0.00 51 1017.1
20230207015017 39 0.0 0.0 0.00 0.00 0.00 52 1017.0
20230207014517 39 0.0 0.0 0.00 0.00 0.00 53 1017.0
20230207014017 39 0.0 0.0 0.00 0.00 0.00 53 1016.9
20230207013517 39 113 2.0 3.0 0.00 0.00 0.00 52 1016.9
20230207013017 39 113 2.0 3.0 0.00 0.00 0.00 51 1016.8
20230207012517 39 135 1.0 2.0 0.00 0.00 0.00 49 1016.7
20230207012037 39 135 1.0 2.0 0.00 0.00 0.00 51 1016.6
20230207011517 39 0.0 0.0 0.00 0.00 0.00 51 1016.6
20230207011037 40 0.0 0.0 0.00 0.00 0.00 51 1016.5
20230207010558 40 0.0 0.0 0.00 0.00 0.00 48 1016.4
20230207010017 40 0.0 2.0 0.00 0.00 0.00 47 1016.4
20230207005517 40 0.0 0.0 0.00 0.00 0.00 46 1016.2
20230207005017 40 0.0 0.0 0.00 0.00 0.00 45 1016.0
20230207004517 40 0.0 0.0 0.00 0.00 0.00 46 1015.8
20230207004037 40 0.0 0.0 0.00 0.00 0.00 47 1015.7
20230207003517 40 0.0 0.0 0.00 0.00 0.00 46 1015.7
20230207003017 41 0.0 0.0 0.00 0.00 0.00 47 1015.5
20230207002537 41 113 1.0 2.0 0.00 0.00 0.00 47 1015.5
20230207002037 41 113 1.0 2.0 0.00 0.00 0.00 46 1015.3
20230207001517 41 0.0 0.0 0.00 0.00 0.00 47 1015.3
20230207001037 41 0.0 0.0 0.00 0.00 0.00 47 1015.2
20230207000517 41 0.0 0.0 0.00 0.00 0.00 46 1015.0
20230207000017 42 45 1.0 2.0 0.00 0.00 0.00 45 1015.0
20230206235517 42 45 1.0 3.0 0.00 0.00 0.00 44 1015.0
20230206235017 42 68 2.0 3.0 0.00 0.00 0.00 42 1014.7
20230206234517 42 45 4.0 6.0 0.00 0.00 0.00 40 1014.5
20230206234017 42 68 1.0 2.0 0.00 0.00 0.00 40 1014.3
20230206233517 42 0.0 1.0 0.00 0.00 0.00 40 1014.2
20230206233017 42 0.0 0.0 0.00 0.00 0.00 40 1014.0
20230206232517 42 0.0 1.0 0.00 0.00 0.00 41 1014.1
20230206232017 42 113 2.0 3.0 0.00 0.00 0.00 40 1013.8
20230206231517 43 45 2.0 3.0 0.00 0.00 0.00 40 1013.7
20230206231017 43 0.0 0.0 0.00 0.00 0.00 38 1013.6
20230206230517 43 293 1.0 2.0 0.00 0.00 0.00 38 1013.5
20230206230017 42 338 2.0 3.0 0.00 0.00 0.00 38 1013.5
20230206225517 43 0 3.0 4.0 0.00 0.00 0.00 38 1013.4
20230206225037 42 0 3.0 5.0 0.00 0.00 0.00 38 1013.3
20230206224537 42 68 3.0 5.0 0.00 0.00 0.00 38 1013.2
20230206224017 42 293 1.0 2.0 0.00 0.00 0.00 39 1013.1
20230206223517 42 270 2.0 4.0 0.00 0.00 0.00 39 1013.1
20230206223017 42 293 2.0 4.0 0.00 0.00 0.00 41 1013.0
20230206222517 42 270 5.0 7.0 0.00 0.00 0.00 39 1012.9
20230206222017 42 293 3.0 6.0 0.00 0.00 0.00 40 1012.9
20230206221517 42 113 1.0 2.0 0.00 0.00 0.00 41 1012.8
20230206221037 42 113 1.0 2.0 0.00 0.00 0.00 42 1012.7
20230206220517 42 113 1.0 2.0 0.00 0.00 0.00 43 1012.5
20230206220017 42 135 2.0 4.0 0.00 0.00 0.00 43 1012.4
20230206215517 42 113 1.0 2.0 0.00 0.00 0.00 43 1012.2
20230206215037 42 0.0 1.0 0.00 0.00 0.00 45 1012.1
20230206214517 42 135 2.0 3.0 0.00 0.00 0.00 44 1012.0
20230206214017 42 113 4.0 6.0 0.00 0.00 0.00 42 1011.8
20230206213517 42 113 2.0 4.0 0.00 0.00 0.00 44 1011.8
20230206213017 42 45 2.0 4.0 0.00 0.00 0.00 45 1011.6
20230206212517 42 68 3.0 4.0 0.00 0.00 0.00 41 1011.5
20230206212017 42 68 4.0 7.0 0.00 0.00 0.00 39 1011.5
20230206211517 41 113 2.0 5.0 0.00 0.00 0.00 40 1011.3
20230206211017 41 68 1.0 2.0 0.00 0.00 0.00 40 1011.4
20230206210517 40 113 4.0 9.0 0.00 0.00 0.00 45 1011.4
20230206210017 40 113 2.0 4.0 0.00 0.00 0.00 46 1011.4
20230206205517 41 90 5.0 8.0 0.00 0.00 0.00 44 1011.3
20230206205017 41 68 4.0 6.0 0.00 0.00 0.00 44 1011.3
20230206204517 40 45 5.0 9.0 0.00 0.00 0.00 45 1010.9
20230206204017 40 90 3.0 6.0 0.00 0.00 0.00 48 1010.8
20230206203517 40 90 3.0 7.0 0.00 0.00 0.00 52 1010.6
20230206203017 40 68 4.0 7.0 0.00 0.00 0.00 50 1010.6
20230206202537 40 90 3.0 4.0 0.00 0.00 0.00 50 1010.5
20230206202017 40 90 2.0 4.0 0.00 0.00 0.00 52 1010.6
20230206201517 40 90 3.0 4.0 0.00 0.00 0.00 52 1010.5
20230206201037 40 113 6.0 8.0 0.00 0.00 0.00 53 1010.3
20230206200557 41 113 6.0 8.0 0.00 0.00 0.00 51 1010.5
20230206200017 41 45 3.0 8.0 0.00 0.00 0.00 49 1010.4
20230206195517 41 113 4.0 7.0 0.00 0.00 0.00 51 1010.4
20230206195037 41 113 5.0 8.0 0.00 0.00 0.00 47 1010.3
20230206194517 41 135 3.0 4.0 0.00 0.00 0.00 48 1010.1
20230206194017 41 135 2.0 4.0 0.00 0.00 0.00 50 1010.1
20230206193517 41 113 3.0 4.0 0.00 0.00 0.00 48 1010.0
20230206193017 41 135 3.0 6.0 0.00 0.00 0.00 54 1010.1
20230206192517 41 113 4.0 6.0 0.00 0.00 0.00 54 1010.1
20230206192017 41 135 2.0 3.0 0.00 0.00 0.00 55 1010.1
20230206191517 41 113 4.0 10.0 0.00 0.00 0.00 55 1010.1
20230206191058 40 113 3.0 5.0 0.00 0.00 0.00 55 1010.1
20230206190517 40 90 2.0 2.0 0.00 0.00 0.00 57 1010.1
20230206190017 40 113 5.0 7.0 0.00 0.00 0.00 54 1010.1
20230206185517 40 113 2.0 3.0 0.00 0.00 0.00 55 1010.1
20230206185017 40 135 3.0 6.0 0.00 0.00 0.00 55 1010.2
20230206184517 39 113 2.0 4.0 0.00 0.00 0.00 54 1010.3
20230206184017 39 113 3.0 6.0 0.00 0.00 0.00 55 1010.2
20230206183517 40 90 6.0 9.0 0.00 0.00 0.00 54 1010.3
20230206183017 40 90 4.0 6.0 0.00 0.00 0.00 54 1010.3
20230206182517 40 113 6.0 11.0 0.00 0.00 0.00 54 1010.2
20230206182017 39 113 4.0 6.0 0.00 0.00 0.00 53 1010.1
20230206181517 39 90 3.0 6.0 0.00 0.00 0.00 53 1010.2
20230206181017 39 90 5.0 8.0 0.00 0.00 0.00 53 1010.3
20230206180517 40 113 5.0 10.0 0.00 0.00 0.00 54 1010.2
20230206180017 40 90 3.0 6.0 0.00 0.00 0.00 54 1010.2
20230206175517 40 90 4.0 5.0 0.00 0.00 0.00 53 1010.1
20230206175017 39 113 6.0 8.0 0.00 0.00 0.00 52 1010.0
20230206174517 39 113 4.0 8.0 0.00 0.00 0.00 50 1010.1
20230206174037 39 113 2.0 4.0 0.00 0.00 0.00 53 1010.1
20230206173517 39 113 4.0 7.0 0.00 0.00 0.00 54 1010.0
20230206173017 39 90 4.0 8.0 0.00 0.00 0.00 53 1010.0
20230206172517 40 90 7.0 9.0 0.00 0.00 0.00 52 1009.9
20230206172017 41 68 3.0 5.0 0.00 0.00 0.00 53 1009.8
20230206171537 41 90 3.0 5.0 0.00 0.00 0.00 52 1009.6
20230206171017 42 68 3.0 6.0 0.00 0.00 0.00 48 1009.3
20230206170517 42 68 2.0 3.0 0.00 0.00 0.00 48 1009.1
20230206170017 43 45 3.0 5.0 0.00 0.00 0.00 46 1009.0
20230206165517 43 68 3.0 5.0 0.00 0.00 0.00 40 1008.8
20230206165037 43 45 4.0 7.0 0.00 0.00 0.00 38 1008.7
20230206164517 43 45 2.0 4.0 0.00 0.00 0.00 39 1008.6
20230206164017 42 338 2.0 3.0 0.00 0.00 0.00 39 1008.6
20230206163517 42 338 3.0 7.0 0.00 0.00 0.00 38 1008.4
20230206163037 42 293 6.0 12.0 0.00 0.00 0.00 34 1008.3
20230206162517 42 248 5.0 8.0 0.00 0.00 0.00 33 1008.1
20230206162017 41 248 6.0 8.0 0.00 0.00 0.00 34 1007.9
20230206161517 41 248 5.0 9.0 0.00 0.00 0.00 33 1007.9
20230206161037 40 248 6.0 11.0 0.00 0.00 0.00 33 1007.9
20230206160537 40 248 6.0 9.0 0.00 0.00 0.00 35 1007.7
20230206160017 40 248 6.0 11.0 0.00 0.00 0.00 35 1007.6
20230206155517 40 203 8.0 11.0 0.00 0.00 0.00 35 1007.5
20230206155017 40 203 6.0 9.0 0.00 0.00 0.00 36 1007.7
20230206154517 40 225 4.0 7.0 0.00 0.00 0.00 38 1007.7
20230206154017 40 225 3.0 4.0 0.00 0.00 0.00 42 1007.7
20230206153517 39 203 4.0 5.0 0.00 0.00 0.00 43 1007.5
20230206153017 38 203 5.0 9.0 0.00 0.00 0.00 44 1007.6
20230206152517 37 225 3.0 6.0 0.00 0.00 0.00 49 1007.5
20230206152017 35 225 2.0 3.0 0.00 0.00 0.00 53 1007.6
20230206151517 34 225 4.0 5.0 0.00 0.00 0.00 59 1007.3
20230206151037 32 248 3.0 4.0 0.00 0.00 0.00 66 1007.3
20230206150517 31 0.0 0.0 0.00 0.00 0.00 72 1007.1
20230206150017 30 0.0 0.0 0.00 0.00 0.00 74 1007.1
20230206145517 30 0.0 0.0 0.00 0.00 0.00 74 1007.1
20230206145017 30 0.0 0.0 0.00 0.00 0.00 74 1007.0
20230206144517 30 0.0 0.0 0.00 0.00 0.00 73 1006.9
20230206144017 30 0.0 0.0 0.00 0.00 0.00 73 1006.6
20230206143517 30 0.0 0.0 0.00 0.00 0.00 73 1006.8
20230206143017 31 0.0 0.0 0.00 0.00 0.00 72 1006.8
20230206142517 31 0.0 0.0 0.00 0.00 0.00 72 1006.6
20230206142017 31 0.0 0.0 0.00 0.00 0.00 72 1006.5
20230206141517 31 0.0 0.0 0.00 0.00 0.00 71 1006.6
20230206141017 31 0.0 0.0 0.00 0.00 0.00 71 1006.6
20230206140537 32 45 2.0 2.0 0.00 0.00 0.00 70 1006.4
20230206140017 32 0.0 0.0 0.00 0.00 0.00 70 1006.4
20230206135517 32 0.0 0.0 0.00 0.00 0.00 70 1006.4
20230206135017 32 45 2.0 3.0 0.00 0.00 0.00 69 1006.4
20230206134517 32 0.0 1.0 0.00 0.00 0.00 70 1006.3
20230206134017 32 180 1.0 2.0 0.00 0.00 0.00 71 1006.2
20230206133517 31 90 2.0 3.0 0.00 0.00 0.00 72 1006.3
20230206133017 31 0.0 1.0 0.00 0.00 0.00 71 1006.2
20230206132517 31 0.0 0.0 0.00 0.00 0.00 71 1006.1
20230206132017 31 0.0 0.0 0.00 0.00 0.00 72 1006.0
20230206131517 31 225 1.0 2.0 0.00 0.00 0.00 72 1005.8
20230206131017 31 180 2.0 3.0 0.00 0.00 0.00 72 1005.6
20230206130517 32 203 2.0 5.0 0.00 0.00 0.00 72 1005.5
20230206130017 32 180 3.0 4.0 0.00 0.00 0.00 71 1005.4
20230206125517 32 158 1.0 2.0 0.00 0.00 0.00 71 1005.4
20230206125017 32 158 2.0 4.0 0.00 0.00 0.00 71 1005.3
20230206124517 32 0.0 0.0 0.00 0.00 0.00 71 1005.3
20230206124017 32 0.0 1.0 0.00 0.00 0.00 72 1005.1
20230206123537 31 225 1.0 2.0 0.00 0.00 0.00 72 1005.1
20230206123017 31 0.0 0.0 0.00 0.00 0.00 72 1005.1
20230206122517 31 0.0 0.0 0.00 0.00 0.00 73 1004.9
20230206122017 31 158 2.0 3.0 0.00 0.00 0.00 73 1004.9
20230206121517 30 135 2.0 3.0 0.00 0.00 0.00 74 1004.9
20230206121017 30 180 2.0 3.0 0.00 0.00 0.00 74 1004.9
20230206120517 29 180 3.0 4.0 0.00 0.00 0.00 74 1004.9
20230206120017 29 158 4.0 6.0 0.00 0.00 0.00 75 1005.0
20230206115517 29 158 1.0 3.0 0.00 0.00 0.00 74 1005.0
20230206115017 29 180 1.0 3.0 0.00 0.00 0.00 75 1005.0
20230206114517 29 338 3.0 4.0 0.00 0.00 0.00 75 1004.9
20230206114017 29 158 6.0 8.0 0.00 0.00 0.00 75 1004.8
20230206113517 28 0.0 0.0 0.00 0.00 0.00 75 1004.7
20230206113017 28 0.0 0.0 0.00 0.00 0.00 76 1004.6
20230206112517 28 0.0 2.0 0.00 0.00 0.00 75 1004.5
20230206112017 28 338 2.0 3.0 0.00 0.00 0.00 75 1004.7
20230206111537 29 270 1.0 3.0 0.00 0.00 0.00 75 1005.0
20230206111037 29 135 2.0 3.0 0.00 0.00 0.00 74 1005.1
20230206110537 29 113 1.0 1.0 0.00 0.00 0.00 74 1004.8
20230206110017 29 0.0 1.0 0.00 0.00 0.00 74 1004.6
20230206105517 30 113 1.0 3.0 0.00 0.00 0.00 74 1004.4
20230206105017 30 90 3.0 4.0 0.00 0.00 0.00 73 1004.3
20230206104517 30 0.0 0.0 0.00 0.00 0.00 73 1004.4
20230206104017 30 113 2.0 4.0 0.00 0.00 0.00 73 1004.5
20230206103557 30 90 2.0 3.0 0.00 0.00 0.00 72 1004.4
20230206103017 30 68 1.0 2.0 0.00 0.00 0.00 71 1004.5
20230206102517 31 68 2.0 3.0 0.00 0.00 0.00 70 1004.3
20230206102017 32 23 2.0 5.0 0.00 0.00 0.00 68 1004.2
20230206101537 33 113 4.0 6.0 0.00 0.00 0.00 65 1003.9
20230206101017 36 90 5.0 8.0 0.00 0.00 0.00 60 1003.6
20230206100517 38 45 3.0 5.0 0.00 0.00 0.00 60 1003.3
20230206100017 38 45 1.0 2.0 0.00 0.00 0.00 60 1003.1
20230206095517 38 45 1.0 2.0 0.00 0.00 0.00 60 1003.0
20230206095037 39 0.0 0.0 0.00 0.00 0.00 60 1003.1
20230206094517 39 0.0 0.0 0.00 0.00 0.00 59 1003.1
20230206094017 38 0.0 0.0 0.00 0.00 0.00 60 1003.2
20230206093517 38 0.0 0.0 0.00 0.00 0.00 61 1003.2
20230206093017 38 0.0 0.0 0.00 0.00 0.00 60 1003.3
20230206092517 38 0.0 0.0 0.00 0.00 0.00 61 1003.4
20230206092017 38 0.0 0.0 0.00 0.00 0.00 61 1003.4
20230206091537 37 0.0 0.0 0.00 0.00 0.00 61 1003.5
20230206091017 37 0.0 0.0 0.00 0.00 0.00 62 1003.5
20230206090517 36 0.0 0.0 0.00 0.00 0.00 63 1003.5
20230206090017 36 0.0 0.0 0.00 0.00 0.00 64 1003.6
20230206085517 35 0.0 0.0 0.00 0.00 0.00 64 1003.6
20230206085017 35 0.0 0.0 0.00 0.00 0.00 64 1003.7
20230206084517 35 0.0 0.0 0.00 0.00 0.00 64 1003.9
20230206084017 35 225 2.0 3.0 0.00 0.00 0.00 64 1003.9
20230206083517 36 270 2.0 4.0 0.00 0.00 0.00 64 1003.9
20230206083017 35 0.0 0.0 0.00 0.00 0.00 64 1003.9
20230206082517 35 0.0 0.0 0.00 0.00 0.00 65 1003.9
20230206082057 34 0.0 0.0 0.00 0.00 0.00 67 1003.9
20230206081517 33 293 2.0 4.0 0.00 0.00 0.00 69 1004.1
20230206081017 32 135 1.0 2.0 0.00 0.00 0.00 71 1004.4
20230206080517 31 113 1.0 3.0 0.00 0.00 0.00 71 1004.4
20230206080017 30 0.0 0.0 0.00 0.00 0.00 73 1004.5
20230206075517 30 0.0 0.0 0.00 0.00 0.00 73 1004.5
20230206075037 29 0.0 0.0 0.00 0.00 0.00 74 1004.6
20230206074517 29 338 1.0 2.0 0.00 0.00 0.00 75 1004.9
20230206074017 28 225 2.0 3.0 0.00 0.00 0.00 75 1004.8
20230206073517 27 315 1.0 2.0 0.00 0.00 0.00 76 1004.9